Regional Weather Roundup
Issued by NWS

Home | Current Version | Previous Version | Text Only | Print | Product List | Glossary On
Versions: 1 2 3 4 5 6 7 8 9 10 11 12 13 14 15 16 17 18 19 20 21 22 23 24 25 26 27 28 29 30 31 32 33 34 35 36 37 38 39 40 41 42 43 44 45 46 47 48 49
000
ASUS42 KFFC 012203
RWRGA
WEATHER ROUNDUP FOR GEORGIA
NATIONAL WEATHER SERVICE PEACHTREE CITY GA
600 PM EDT WED OCT 01 2014

NOTE: "FAIR" INDICATES FEW OR NO CLOUDS BELOW 12,000 FEET WITH NO
SIGNIFICANT WEATHER AND/OR OBSTRUCTIONS TO VISIBILITY.

* = USE WITH CAUTION. THE STATIONS MARKED WITH AN ASTERISK MAY NOT
REPORT WEATHER SUCH AS PRECIPITATION, FOG, OR THUNDER AND ARE NOT
QUALITY CONTROLLED BY NWS.

THE REMARK "TC" DENOTES TEMPERATURE READING IN DEGREES CELSIUS.

GAZ001>058-012300-
NORTH GEORGIA

CITY           SKY/WX    TMP DP  RH WIND       PRES   REMARKS
ATLANTA        PTSUNNY   82  58  43 SE3       29.98R
ATHENS         SUNNY     81  59  47 CALM      29.98R
CHAMBLEE       MOSUNNY   82  55  39 S3        29.98R
PEACHTREE CITY SUNNY     83  57  41 SE5       29.97S
ROME           SUNNY     84  54  35 SE5       29.94S
WEST ATLANTA   MOSUNNY   83  58  42 SE7       29.97R
GAINESVILLE    SUNNY     81  56  42 S5        30.01R
CARTERSVILLE   SUNNY     84  54  35 CALM      29.97R


CITY           SKY/WX    TMP DP  RH WIND       PRES   REMARKS
DALTON*        SUNNY     81  55  41 CALM      29.97S
LAWRENCEVILLE* MOSUNNY   84  55  37 CALM      29.98R
MARIETTA       PTSUNNY   82  58  42 VRB5      29.98R
KENNESAW*      MOSUNNY   84  55  37 CALM      29.99R
$$

GAZ059>098-102>109-012300-
CENTRAL GEORGIA

CITY           SKY/WX    TMP DP  RH WIND       PRES   REMARKS
AUGUSTA-BUSH   SUNNY     84  60  44 SE6       29.95S
AUGUSTA-DANIEL SUNNY     85  58  39 CALM      29.97S
COLUMBUS       SUNNY     81  61  50 SE8       29.95R
MACON          SUNNY     82  63  52 CALM      29.95S
ROBINS AFB     SUNNY     82  68  60 SE7       29.95S


CITY           SKY/WX    TMP DP  RH WIND       PRES   REMARKS
LAGRANGE*      MOSUNNY   85  68  57 SW3       29.96S
SYLVANIA*      SUNNY     85  70  61 CALM      29.98S
MILLEDGEVILLE* SUNNY     79  68  69 CALM      29.96R
$$

GAZ099>101-110>166-012300-
SOUTH GEORGIA

CITY           SKY/WX    TMP DP  RH WIND       PRES   REMARKS
SAVANNAH       MOSUNNY   82  63  52 E8        29.97R
VALDOSTA       MOSUNNY   81  68  64 VRB3      29.96R
ALMA           MOSUNNY   81  67  62 SE5       29.96R
ST SIMONS      CLOUDY    77  67  71 NE10      29.97R
FT STEWART     PTSUNNY   80  63  55 CALM      29.96R
ALBANY         SUNNY     82  66  58 SW3       29.97S
HUNTER AFB     SUNNY     80  65  60 SE6       29.96R
MOODY AFB      PTSUNNY   80  68  65 NE5       29.96S
BRUNSWICK      CLOUDY    79  66  65 E8        29.98R


CITY           SKY/WX    TMP DP  RH WIND       PRES   REMARKS
BAINBRIDGE*    MOSUNNY   84  70  61 E6        29.95R
MOULTRIE*      PTSUNNY   81  68  65 CALM      29.97S
VIDALIA*       SUNNY     81  64  57 CALM      29.96S
WAYCROSS*      CLOUDY    83  73  72 CALM      29.96S
DOUGLAS*       PTSUNNY   82  66  57 SE3       29.97S
$$



USA.gov is the U.S. government's official web portal to all federal, state and local government web resources and services.